Other Public Products
Issued by NWS Grand Forks, ND

Home | Current Version | Previous Version | Text Only | Print | Product List | Glossary Off
Versions: 1 2 3 4 5 6 7 8 9 10 11 12 13 14 15 16 17 18 19 20 21 22 23 24 25 26 27 28 29 30 31 32 33 34 35 36 37 38 39 40 41 42 43 44 45 46 47 48 49 50

000
FPUS83 KFGF 250510
OPUFGF
PRAIRIE TO PINES WEATHER ROUNDUP
NATIONAL WEATHER SERVICE EASTERN NORTH DAKOTA/GRAND FORKS ND
1200 AM CDT TUE APR 25 2017

 **SATELLITE DATA USED TO AUGMENT SKY COVER AT AUTOMATED STATIONS**
 *****  WEATHER ACROSS EASTERN NORTH DAKOTA  *****

CITY           SKY/WX    TMP DP  RH WIND       PRES   REMARKS
GRAND FORKS    CLOUDY    34  32  92 N16       29.69R WCI  24
GRAND FORKS AF CLOUDY    32  30  95 N16G24    29.70R WCI  21
GRAND CITY NWS NOT AVBL
BUXTON         NOT AVBL
DEVILS LAKE    CLOUDY    30  27  88 NE15G23   29.76R WCI  19
FARGO          CLOUDY    36  35  96 N21       29.62R
WAHPETON ARPT  CLOUDY    36  34  93 N14G20    29.61R
$$

 *****  WEATHER ACROSS CENTRAL AND WESTERN NORTH DAKOTA  *****

CITY           SKY/WX    TMP DP  RH WIND       PRES   REMARKS
JAMESTOWN      CLOUDY    32  31  96 N16       29.68S WCI  21
BISMARCK       CLOUDY    34  30  85 N10       29.74S
MINOT          CLOUDY    32  28  85 N13       29.81R WCI  22
MINOT AFB      CLOUDY    31  27  83 NE13      29.81R WCI  21
GARRISON         N/A     31  26  82 NE13      29.77S WCI  21
WILLISTON      CLOUDY    31  25  78 NE12      29.83R WCI  22
DICKINSON      CLOUDY    29  27  92 NE13      29.72S WCI  19
HETTINGER      CLOUDY    32  29  88 NE10      29.71R WCI  24
$$

 *****  OTHER OBSERVATIONS NORTHEAST NORTH DAKOTA  *****

CITY           SKY/WX    TMP DP  RH WIND       PRES   REMARKS
WALHALLA       NOT AVBL
LANGDON        CLOUDY    30  28  93 NE18G26   29.76S WCI  18
CAVALIER       CLOUDY    30  28  93 N14       29.76S WCI  20
GRAFTON        CLOUDY    32  30  93 N18       29.74S WCI  20
CANDO          NOT AVBL
FORT TOTTEN      N/A     30  29  98 NE7       29.95S WCI  23
ROLLA          CLOUDY    28  28 100 NE20      29.79F WCI  15
RUGBY          NOT AVBL
 ***** THE ABOVE OBSERVATIONS ARE NON NWS ARE NOT QUALITY
        CONTROLLED AND MAY MIS-REPORT RAIN FOR SNOW...
$$

 *****  OTHER OBSERVATIONS SOUTHEAST NORTH DAKOTA *****

CITY           SKY/WX    TMP DP  RH WIND       PRES   REMARKS
COOPERSTOWN    CLOUDY    32  32 100 N21G26    29.69R WCI  20
VALLEY CITY    CLOUDY    32  32 100 N17       29.68S WCI  21
OAKES          NOT AVBL
GWINNER        CLOUDY    36  34  93 MISG      29.65R
SHEYENNE NWR     N/A     35  33  92 N13       29.95S
BUFFALO        NOT AVBL
WYNDMERE         N/A     37  36  93 N15         N/A
 ***** THE ABOVE OBSERVATIONS ARE NON NWS ARE NOT QUALITY
       CONTROLLED AND MAY MIS-REPORT RAIN FOR SNOW...
$$

  *****  WEATHER ACROSS NORTHERN MINNESOTA  *****

CITY           SKY/WX    TMP DP  RH WIND       PRES   REMARKS
FLAG ISLAND    LGT SNOW  30  28  93 NE15      29.71S WCI  19
WARROAD        LGT SNOW  32  28  86 NE16      29.69S WCI  21
ROSEAU         CLOUDY    32  27  80 NE13      29.69S WCI  22
HALLOCK        CLOUDY    32  28  86 N15       29.72F WCI  22
THF RVR FALLS  CLOUDY    33  32  96 N15       29.64S WCI  23
HALSTAD          N/A     35  34  96 N20         N/A  WCI  24
FOSSTON        CLOUDY    36  36 100 N15       29.59S FOG
BAUDETTE       CLOUDY    33  32  96 N10       29.65S WCI  25
WASKISH        DRIZZLE   37  36  93 NE6       29.61S
CROOKSTON      CLOUDY    34  34 100 N13G20    29.65S WCI  25
$$
  *****  WEATHER ACROSS CENTRAL AND WEST MINNESOTA  *****

CITY           SKY/WX    TMP DP  RH WIND       PRES   REMARKS
BEMIDJI        DRIZZLE   40  39  97 E5        29.57S
PARK RAPIDS    CLOUDY    46  41  82 NE5       29.54R
WADENA         CLOUDY    48  45  87 NE5       29.52S
DETROIT LAKES  CLOUDY    41  41 100 NW14      29.57S FOG
MOORHEAD       CLOUDY    36  34  93 N20G25    29.62R
FERGUS FALLS   CLOUDY    37  37 100 N17G24    29.56S FOG
ELBOW LAKE     CLOUDY    40  40 100 W16       29.56S FOG
MORRIS MN      NOT AVBL
STAPLES        CLOUDY    48  46  93 N5        29.52S
WHEATON        CLOUDY    37  36  93 NW18      29.61F
$$
  *****  WEATHER ELSEWHERE ACROSS MINNESOTA  *****

CITY           SKY/WX    TMP DP  RH WIND       PRES   REMARKS
DULUTH         CLOUDY    38  33  82 E18       29.62S
INTRNTL FALLS  LGT RAIN  36  34  92 VRB5      29.63S
ELY            MOCLDY    36  34  93 NE7       29.63F
CLOQUET        CLOUDY    37  32  81 E8        29.62S
BRAINERD       LGT RAIN  45  40  82 MISG      29.55S
HIBBING        LGT RAIN  36  34  92 E8        29.62S
ALEXANDRIA     CLOUDY    44  44 100 NW10      29.53S FOG
SAINT CLOUD    LGT RAIN  58  43  57 SE8       29.52F
MINNEAPOLIS    LGT RAIN  61  42  49 S7G18     29.57R
$$

  *****  WEATHER ACROSS SOUTH DAKOTA  *****

CITY           SKY/WX    TMP DP  RH WIND       PRES   REMARKS
SIOUX FALLS    MOCLDY    46  40  79 NW15      29.57R
BROOKINGS      CLOUDY    40  37  89 N16       29.58R
WATERTOWN      CLOUDY    39  36  89 N16       29.58F
HURON          CLOUDY    41  36  82 N16       29.62F
SISSETON         N/A     37  36  96 N20       29.60S
ABERDEEN       CLOUDY    36  31  82 N15       29.66S
MITCHELL       CLOUDY    43  37  79 N10       29.62S
PIERRE         CLOUDY    38  33  82 N10       29.66R
MOBRIDGE       CLOUDY    37  29  72 N15       29.66F
RAPID CITY     CLOUDY    41  35  79 NE12      29.63R
$$

  *****  SOME WEATHER IN NEARBY STATES *****

CITY           SKY/WX    TMP DP  RH WIND       PRES   REMARKS
GLASGOW MT     CLOUDY    32  25  75 E17       29.81R WCI  21
GREAT FALLS MT CLOUDY    42  38  85 NW6       29.68R
CHEYENNE WY    MOCLDY    34  32  92 NW15G25   29.64R FOG     WCI  24
SCOTTSBLUFF NE CLOUDY    50  45  83 SE7       29.56F
OMAHA NE       MOCLDY    63  44  50 S8        29.52S
DES MOINES IA  CLOUDY    64  35  34 S8        29.58F
DAVENPORT IA   FAIR      60  28  29 S10       29.69S
CHICAGO IL     FAIR      54  37  52 SE9       29.75F
EAU CLAIRE WI  CLOUDY    60  33  36 E7        29.61F
LA CROSSE WI   FAIR      66  31  27 S8        29.62F
$$

  *****  SOME NATIONAL WEATHER *****

CITY           SKY/WX    TMP DP  RH WIND       PRES   REMARKS
LA GUARDIA NY  CLOUDY    51  46  83 NE13      30.12F
RALEIGH NC     RAIN      60  59  96 N6        29.67S FOG
ATLANTA GA     MOCLDY    60  57  89 S3        29.74S
NEW ORLEANS LA FAIR      62  55  77 W6        29.82R
OKLAHOMA CITY  MOCLDY    63  49  60 S18G26    29.52F
ALBUQUERQUE NM MOCLDY    68  17  14 SW10      29.74R
SALT LAKE CITY RAIN      45  41  86 NW10      29.78R FOG
LOS ANGELES CA FAIR      59  54  83 S6        29.89R
BOISE ID       CLOUDY    46  41  82 N3        29.76R
SEATTLE WA     MOCLDY    50  46  86 S8        29.90R
$$

*** WEATHER ACROSS MANITOBA...SASKATCHEWAN AND ONTARIO ***
                ***ONTARIO***

CITY           SKY/WX    TMP DP  RH WIND       PRES   REMARKS
GERALDTON      FLURRIES  30  23  74 E20G26    29.95F WCI  18
THUNDER BAY    CLOUDY    37  30  75 NE16G23   29.81F
SIOUX LOOKOUT  FRZ DRZL  28  27  93 NE7       29.78S WCI  21
TORONTO        PTCLDY    46  32  57 E13G21    30.06F
BIG TROUT LK   CLOUDY    16   3  57 E9        30.21S WCI   4
PICKLE LAKE    NOT AVBL
DRYDEN         LGT SNOW  28  27  93 NE18G26   29.72F WCI  16
KENORA         LGT SNOW  28  25  86 NE17G25   29.73S DRFTSNOWWCI  16
$$
                *** MANITOBA***

CITY           SKY/WX    TMP DP  RH WIND       PRES   REMARKS
BRANDON        CLOUDY    30  25  80 NE9       29.88R WCI  22
DAUPHIN        CLOUDY    32  19  59 NE16      29.95R WCI  21
ISLAND LAKE    PTCLDY    19   3  49 E12G20    30.17R WCI   7
PILOT MOUND      N/A     28  25  86 NE16G22     N/A  WCI  17
THE PAS        PTCLDY    27   7  43 NE7       30.12R WCI  19
THOMPSON       PTCLDY    12  -2  52 NE6       30.26R WCI   3
WINNIPEG       CLOUDY    30  27  86 NE15G22   29.83S WCI  19
LYNN LAKE      CLEAR     12   0  57 E6        30.21R WCI   3
CHURCHILL      CLOUDY     1  -2  85 SW2       30.43S
GILLAM         CLEAR     -2  -8  78 E5        30.36R WCI -12
$$
                ***SASKATCHEWAN***

CITY           SKY/WX    TMP DP  RH WIND       PRES   REMARKS
ESTEVAN        FLURRIES  28  27  93 NE14      29.86S WCI  17
KINDERSLEY     CLOUDY    30  25  80 SE17      29.87R WCI  18
LLOYDMINSTER   FLURRIES  28  28 100 E13       29.90R WCI  18
PRINCE ALBERT  MOCLDY    28  14  54 E13       30.01R WCI  18
REGINA         NOT AVBL
YORKTON        CLOUDY    27  21  80 N13       29.96R W



USA.gov is the U.S. government's official web portal to all federal, state and local government web resources and services.